Terug naar catalogus

COSMOS 1823 DEB

ActiefLEO
NORAD 18752·DEBRIS·🇷🇺 Russia

Gelanceerd Feb 20, 1987 vanaf Plesetsk Cosmodrome

Loading…

Volgende Passages (komende 24 uur)

TLE

VersSource: Space-Track

Epoch: Sep 14, 2026, 07:02 UTC

1 18752U 87020AD  26257.29365098  .00000007  00000-0  13752-3 0  9992
2 18752  73.9237  13.1379 0059447 174.8944 211.7320 12.60395660780690

Volg COSMOS 1823 DEB in realtime met AllMySat

Download on the App Store